Weather History for Providence, RI

Change the Weather History Date:

Monday, January 23, 2012

  Actual Average Record
Temperature  
Mean Temperature 38 °F 29 °F  
Max Temperature 50 °F 37 °F 64 °F (1906)
Min Temperature 26 °F 21 °F -13 °F (1976)
Degree Days  
Heating Degree Days 27 36  
Month to date heating degree days 753 824  
Since 1 July heating degree days 2388 2851  
Cooling Degree Days 0 0  
Month to date cooling degree days 0 0  
Year to date cooling degree days 0 0  
Moisture  
Dew Point 34 °F    
Average Humidity 81    
Maximum Humidity 86    
Minimum Humidity 75    
Precipitation  
Precipitation 0.18 in 0.12 in 2.37 in (1992)
Month to date precipitation 2.82 2.88  
Year to date precipitation 2.82 2.88  
Snow  
Snow T in 0.20 in 16.40 in (2005)
Month to date snowfall 10.7 6.6  
Since 1 July snowfall 13.0 16.8  
Snow Depth 6.00 in    
Sea Level Pressure  
Sea Level Pressure 30.20 in    
Wind  
Wind Speed 3 mph (SE)    
Max Wind Speed 14 mph    
Max Gust Speed 18 mph    
Visibility 6 miles    
Events Fog , Rain , Snow    
T = Trace of Precipitation, MM = Missing Value Source: NWS Daily Summary

Daily Weather History Graph

Daily Weather History Graph

Search for Another Location

Airport:

Trip Planner

Search our weather history database for the weather conditions in past years. The results will help you decide how hot, cold, wet, or windy it might be!

Date:

Astronomy

Jan. 23, 2012 Rise Set
Actual Time 7:06 AM EST 4:49 PM EST
Civil Twilight 6:35 AM EST 5:19 PM EST
Nautical Twilight 6:02 AM EST 5:53 PM EST
Astronomical Twilight 5:29 AM EST 6:26 PM EST
Moon 6:59 AM EST (1/23) 5:34 PM EST (1/23)
Length of Visible Light 10h 43m
Length of Day
9h 43m
New Moon, 0% of the Moon is Illuminated
Jan 23
New Moon
Jan 30
First Quarter
Feb 7
Full
Feb 14
Last Quarter
Feb 21
New

Hourly Weather History & Observations

Time (EST) Temp. Windchill Dew Point Humidity Pressure Visibility Wind Dir Wind Speed Gust Speed Precip Events Conditions
12:51 AM 28.9 °F 23.9 °F 21.0 °F 72% 30.50 in 10.0 mi NNW 4.6 mph - N/A   Overcast
1:18 AM 28.4 °F 21.2 °F 21.2 °F 74% 30.50 in 10.0 mi North 6.9 mph - N/A   Overcast
1:51 AM 28.9 °F 23.9 °F 21.0 °F 72% 30.49 in 10.0 mi NNE 4.6 mph - N/A   Overcast
2:51 AM 28.9 °F 22.8 °F 21.9 °F 75% 30.46 in 10.0 mi ENE 5.8 mph - N/A   Overcast
3:51 AM 26.6 °F 22.6 °F 19.4 °F 74% 30.44 in 10.0 mi East 3.5 mph - N/A   Mostly Cloudy
4:51 AM 28.0 °F - 23.0 °F 81% 30.42 in 9.0 mi Calm Calm - 0.00 in Snow Light Snow
5:51 AM 28.9 °F - 24.1 °F 82% 30.40 in 9.0 mi Calm Calm - 0.00 in Snow Light Snow
6:51 AM 30.0 °F 26.5 °F 25.0 °F 82% 30.38 in 10.0 mi NNE 3.5 mph - 0.00 in   Overcast
7:51 AM 32.0 °F 27.5 °F 26.6 °F 80% 30.36 in 10.0 mi East 4.6 mph - N/A   Mostly Cloudy
7:59 AM 32.0 °F 27.5 °F 26.6 °F 80% 30.35 in 10.0 mi East 4.6 mph - N/A   Overcast
8:36 AM 33.8 °F - 26.6 °F 75% 30.35 in 10.0 mi Calm Calm - N/A   Overcast
8:51 AM 33.1 °F - 28.0 °F 82% 30.35 in 10.0 mi Calm Calm - N/A   Overcast
9:51 AM 34.0 °F - 28.9 °F 82% 30.33 in 10.0 mi Calm Calm - N/A   Overcast
10:10 AM 35.6 °F 32.8 °F 30.2 °F 81% 30.31 in 10.0 mi NE 3.5 mph - N/A   Overcast
10:38 AM 37.4 °F - 30.2 °F 75% 30.30 in 10.0 mi Calm Calm - N/A   Overcast
10:51 AM 36.0 °F - 30.9 °F 82% 30.30 in 10.0 mi Calm Calm - N/A   Overcast
11:26 AM 37.4 °F - 30.2 °F 75% 30.28 in 10.0 mi Calm Calm - N/A   Overcast
11:42 AM 39.2 °F - 32.0 °F 75% 30.26 in 10.0 mi Calm Calm - N/A   Overcast
11:51 AM 39.0 °F - 32.0 °F 76% 30.26 in 10.0 mi Calm Calm - N/A   Overcast
12:21 PM 41.0 °F - 33.8 °F 76% 30.24 in 10.0 mi Calm Calm - N/A   Overcast
12:51 PM 41.0 °F 38.0 °F 36.0 °F 82% 30.23 in 10.0 mi SSE 4.6 mph - N/A   Overcast
1:51 PM 41.0 °F 38.0 °F 37.0 °F 86% 30.20 in 10.0 mi South 4.6 mph - N/A   Overcast
2:11 PM 41.0 °F 37.1 °F 37.4 °F 87% 30.19 in 9.0 mi South 5.8 mph - N/A   Overcast
2:51 PM 42.8 °F 39.3 °F 37.4 °F 81% 30.17 in 9.0 mi SSE 5.8 mph - N/A   Overcast
3:26 PM 42.8 °F - 37.4 °F 81% 30.15 in 9.0 mi Calm Calm - N/A   Overcast
3:51 PM 42.1 °F 40.2 °F 37.9 °F 85% 30.14 in 9.0 mi SE 3.5 mph - N/A   Overcast
4:23 PM 42.8 °F 41.1 °F 37.4 °F 81% 30.13 in 6.0 mi SE 3.5 mph - 0.00 in   Light Drizzle
4:51 PM 41.0 °F - 37.9 °F 89% 30.12 in 5.0 mi Calm Calm - 0.00 in   Light Drizzle
5:20 PM 41.0 °F - 39.2 °F 93% 30.11 in 3.0 mi Calm Calm - 0.00 in   Overcast
5:44 PM 39.2 °F - 39.2 °F 100% 30.11 in 2.5 mi Calm Calm - 0.00 in Fog Light Drizzle
5:51 PM 42.1 °F - 39.9 °F 92% 30.11 in 2.0 mi Calm Calm - 0.00 in Fog Light Drizzle
5:55 PM 42.8 °F - 41.0 °F 93% 30.10 in 1.0 mi Calm Calm - 0.00 in Fog Patches of Fog
6:19 PM 37.4 °F 34.9 °F 37.4 °F 100% 30.09 in 2.0 mi ENE 3.5 mph - 0.00 in Fog Light Drizzle
6:35 PM 39.2 °F 37.0 °F 37.4 °F 93% 30.07 in 0.5 mi ESE 3.5 mph - 0.00 in   Overcast
6:49 PM 37.4 °F - 37.4 °F 100% 30.07 in 0.2 mi Calm Calm - 0.00 in Fog Fog
6:51 PM 37.9 °F - 37.9 °F 100% 30.07 in 0.2 mi Calm Calm - 0.00 in Fog Fog
7:51 PM 37.0 °F - 37.0 °F 100% 30.03 in 0.1 mi Calm Calm - 0.02 in Fog , Rain Light Rain
8:51 PM 41.0 °F 39.0 °F 39.9 °F 96% 30.00 in 0.1 mi SSW 3.5 mph - 0.01 in Fog , Rain Light Rain
9:51 PM 43.0 °F 40.3 °F 42.1 °F 97% 29.96 in 0.1 mi South 4.6 mph - 0.01 in Fog Fog
10:29 PM 42.8 °F - 42.8 °F 100% 29.94 in 0.1 mi Calm Calm - 0.05 in Fog , Rain Light Rain
10:51 PM 42.1 °F 39.2 °F 42.1 °F 100% 29.93 in 0.2 mi SSE 4.6 mph - 0.06 in Fog , Rain Light Rain
11:08 PM 44.6 °F 41.4 °F 42.8 °F 93% 29.92 in 0.2 mi South 5.8 mph - 0.03 in Fog , Rain Rain
11:31 PM 46.4 °F 41.5 °F 46.4 °F 100% 29.90 in 0.8 mi South 10.4 mph - 0.07 in Rain Light Rain
11:43 PM 48.2 °F - 48.2 °F 100% 29.90 in 1.0 mi South 10.4 mph - 0.07 in Rain Light Rain
11:51 PM 48.9 °F - 48.0 °F 97% 29.90 in 3.0 mi SSW 11.5 mph - 0.08 in Rain Light Rain